Weather History for Volkel, Netherlands

Change the Weather History Date:

Tuesday, October 9, 2012

  Actual Average Record
Temperature  
Mean Temperature 45 °F -  
Max Temperature 55 °F 53 °F 68 °F (2006)
Min Temperature 35 °F 41 °F 35 °F (2012)
Degree Days  
Heating Degree Days 20    
Moisture  
Dew Point 41 °F    
Average Humidity 88    
Maximum Humidity 100    
Minimum Humidity 54    
Precipitation  
Precipitation 0.00 in - - ()
Sea Level Pressure  
Sea Level Pressure 29.94 in    
Wind  
Wind Speed 3 mph ()    
Max Wind Speed 10 mph    
Max Gust Speed -    
Visibility 5.0 miles    
Events      
Averages and records for this station are not official NWS values.
T = Trace of Precipitation, MM = Missing Value Source: Averaged Metar Reports

Daily Weather History Graph

Daily Weather History Graph

Search for Another Location

Airport:

Trip Planner

Search our weather history database for the weather conditions in past years. The results will help you decide how hot, cold, wet, or windy it might be!

Date:

Astronomy

Oct. 09, 2012 Rise Set
Actual Time 7:51 AM CEST 6:56 PM CEST
Civil Twilight 7:18 AM CEST 7:29 PM CEST
Nautical Twilight 6:39 AM CEST 8:08 PM CEST
Astronomical Twilight 6:00 AM CEST 8:47 PM CEST
Moon 12:29 AM CEST (10/9) 3:52 PM CEST (10/9)
Length of Visible Light 12h 11m
Length of Day
11h 04m
Last Quarter, 39% of the Moon is Illuminated
Oct 9
Last Quarter
Oct 15
New
Oct 22
First Quarter
Oct 29
Full
Nov 7
Last Quarter

Hourly Weather History & Observations

Time (CEST) Temp. Windchill Dew Point Humidity Pressure Visibility Wind Dir Wind Speed Gust Speed Precip Events Conditions
12:25 AM 48.2 °F - 46.4 °F 93% 29.86 in 6.2 mi NE 1.2 mph - N/A   Overcast
12:55 AM 46.4 °F - 46.4 °F 100% 29.86 in 6.2 mi NW 1.2 mph - N/A   Overcast
1:25 AM 46.4 °F - 46.4 °F 100% 29.86 in 6.2 mi NNW 2.3 mph - N/A   Overcast
1:55 AM 48.2 °F - 46.4 °F 93% 29.86 in 6.2 mi North 4.6 mph - N/A   Overcast
2:25 AM 48.2 °F - 46.4 °F 93% 29.86 in 6.2 mi North 2.3 mph - N/A   Overcast
2:55 AM 48.2 °F - 46.4 °F 93% 29.86 in 6.2 mi North 3.5 mph - N/A   Overcast
3:25 AM 46.4 °F 44.3 °F 44.6 °F 93% 29.86 in 6.2 mi North 4.6 mph - N/A   Unknown
3:55 AM 44.6 °F 43.1 °F 44.6 °F 100% 29.86 in 5.0 mi North 3.5 mph - N/A   Mist
4:01 AM 44.6 °F - 44.6 °F 100% 29.86 in 4.3 mi North 2.3 mph - N/A   Mist
4:02 AM 44.6 °F - 44.6 °F 100% 29.86 in 5.0 mi North 2.3 mph - N/A   Mist
4:15 AM 44.6 °F 43.1 °F 42.8 °F 93% 29.86 in 5.0 mi North 3.5 mph - N/A   Mist
4:25 AM 44.6 °F - 42.8 °F 93% 29.86 in 5.0 mi NNW 2.3 mph - N/A   Mist
4:30 AM 42.8 °F 41.1 °F 42.8 °F 100% 29.86 in 4.3 mi North 3.5 mph - N/A   Mist
4:55 AM 42.8 °F 41.1 °F 42.8 °F 100% 29.86 in 3.7 mi North 3.5 mph - N/A   Mist
5:25 AM 42.8 °F - 41.0 °F 93% 29.86 in 3.7 mi North 2.3 mph - N/A   Mist
5:49 AM 41.0 °F - 41.0 °F 100% 29.86 in - NNW 2.3 mph - N/A   Partly Cloudy
5:55 AM 41.0 °F - 39.2 °F 93% 29.86 in - NNW 2.3 mph - N/A   Mist
6:04 AM 41.0 °F 39.0 °F 41.0 °F 100% 29.86 in 3.1 mi NNW 3.5 mph - N/A   Mist
6:17 AM 41.0 °F - 41.0 °F 100% 29.89 in 3.1 mi NW 2.3 mph - N/A   Mist
6:25 AM 41.0 °F - 39.2 °F 93% 29.89 in 3.1 mi NW 2.3 mph - N/A   Mist
6:29 AM 41.0 °F - 39.2 °F 93% 29.89 in - NW 2.3 mph - N/A   Mist
6:36 AM 41.0 °F - 39.2 °F 93% 29.89 in 3.1 mi NW 2.3 mph - N/A   Mist
6:40 AM 41.0 °F - 41.0 °F 100% 29.89 in - NW 2.3 mph - N/A   Mist
6:45 AM 41.0 °F - 39.2 °F 93% 29.89 in 3.1 mi NW 1.2 mph - N/A   Mist
6:48 AM 39.2 °F - 39.2 °F 100% 29.89 in - WNW 1.2 mph - N/A   Mist
6:55 AM 39.2 °F - 39.2 °F 100% 29.89 in - WNW 2.3 mph - N/A   Mist
7:12 AM 37.4 °F - 37.4 °F 100% 29.89 in - WNW 2.3 mph - N/A   Mist
7:13 AM 37.4 °F - 37.4 °F 100% 29.89 in - WNW 2.3 mph - N/A   Mist
7:20 AM 37.4 °F - 35.6 °F 93% 29.89 in - WNW 2.3 mph - N/A   Mist
7:25 AM 37.4 °F - 37.4 °F 100% 29.89 in - WNW 2.3 mph - N/A   Mist
7:26 AM 37.4 °F - 35.6 °F 93% 29.89 in - WNW 2.3 mph - N/A   Mist
7:55 AM 37.4 °F - 37.4 °F 100% 29.89 in 1.8 mi WSW 2.3 mph - N/A   Mist
8:11 AM 35.6 °F 31.7 °F 35.6 °F 100% 29.92 in 0.9 mi WSW 4.6 mph - N/A   Mist
8:15 AM 37.4 °F 33.8 °F 37.4 °F 100% 29.92 in 1.4 mi WSW 4.6 mph - N/A   Mist
8:25 AM 37.4 °F 34.9 °F 37.4 °F 100% 29.92 in 1.2 mi West 3.5 mph - N/A   Mist
8:35 AM 39.2 °F 35.9 °F 39.2 °F 100% 29.92 in 1.8 mi West 4.6 mph - N/A   Mist
8:40 AM 41.0 °F 38.0 °F 41.0 °F 100% 29.92 in - West 4.6 mph - N/A   Scattered Clouds
8:45 AM 41.0 °F 39.0 °F 41.0 °F 100% 29.92 in - West 3.5 mph - N/A   Mostly Cloudy
8:55 AM 42.8 °F 41.1 °F 41.0 °F 93% 29.95 in - West 3.5 mph - N/A   Mostly Cloudy
9:08 AM 42.8 °F 41.1 °F 42.8 °F 100% 29.95 in - WNW 3.5 mph - N/A   Mist
9:19 AM 44.6 °F 42.2 °F 42.8 °F 93% 29.95 in 3.1 mi NW 4.6 mph - N/A   Mist
9:25 AM 44.6 °F 43.1 °F 44.6 °F 100% 29.95 in 3.1 mi NW 3.5 mph - N/A   Mist
9:31 AM 44.6 °F 42.2 °F 44.6 °F 100% 29.95 in 3.1 mi NNW 4.6 mph - N/A   Mist
9:40 AM 46.4 °F 44.3 °F 44.6 °F 93% 29.95 in 3.1 mi NNW 4.6 mph - N/A   Mist
9:41 AM 46.4 °F 44.3 °F 44.6 °F 93% 29.95 in 3.1 mi NNW 4.6 mph - N/A   Mist
9:42 AM 46.4 °F 44.3 °F 44.6 °F 93% 29.95 in 3.1 mi NNW 4.6 mph - N/A   Mist
9:44 AM 46.4 °F 44.3 °F 44.6 °F 93% 29.95 in 3.7 mi NNW 4.6 mph - N/A   Mist
9:55 AM 48.2 °F - 46.4 °F 93% 29.95 in 4.3 mi NNW 4.6 mph - N/A   Partly Cloudy
9:59 AM 48.2 °F - 44.6 °F 87% 29.95 in 5.0 mi NNW 4.6 mph - N/A   Partly Cloudy
10:03 AM 48.2 °F - 46.4 °F 93% 29.95 in 4.3 mi NNW 4.6 mph - N/A   Partly Cloudy
10:17 AM 50.0 °F - 46.4 °F 87% 29.98 in 5.6 mi North 4.6 mph - N/A   Scattered Clouds
10:25 AM 51.8 °F - 46.4 °F 82% 29.98 in 6.2 mi North 4.6 mph - N/A   Unknown
10:55 AM 53.6 °F - 46.4 °F 77% 29.98 in 6.2 mi North 5.8 mph - N/A   Partly Cloudy
11:05 AM 53.6 °F - 44.6 °F 72% 29.98 in 6.2 mi North 4.6 mph - N/A   Scattered Clouds
11:25 AM 53.6 °F - 44.6 °F 72% 29.98 in 6.2 mi NNE 6.9 mph - N/A   Overcast
11:55 AM 55.4 °F - 42.8 °F 63% 29.98 in 6.2 mi North 6.9 mph - N/A   Mostly Cloudy
12:25 PM 55.4 °F - 41.0 °F 58% 29.98 in 6.2 mi North 6.9 mph - N/A   Mostly Cloudy
12:55 PM 55.4 °F - 41.0 °F 58% 29.98 in 6.2 mi North 6.9 mph - N/A   Mostly Cloudy
1:25 PM 55.4 °F - 39.2 °F 54% 29.98 in 6.2 mi North 6.9 mph - N/A   Overcast
1:55 PM 53.6 °F - 39.2 °F 58% 29.98 in 6.2 mi NNW 6.9 mph - N/A   Overcast
2:25 PM 55.4 °F - 41.0 °F 58% 29.98 in 6.2 mi North 6.9 mph - N/A   Unknown
2:55 PM 55.4 °F - 39.2 °F 54% 30.01 in 6.2 mi NNW 4.6 mph - N/A   Mostly Cloudy
3:25 PM 55.4 °F - 39.2 °F 54% 30.01 in 6.2 mi North 10.4 mph - N/A   Overcast
3:55 PM 55.4 °F - 39.2 °F 54% 30.01 in 6.2 mi North 6.9 mph - N/A   Unknown
4:17 PM 55.4 °F - 41.0 °F 58% 30.01 in 6.2 mi North 9.2 mph - N/A   Overcast
4:25 PM 53.6 °F - 39.2 °F 58% 30.01 in 6.2 mi North 8.1 mph - N/A   Overcast
4:55 PM 55.4 °F - 39.2 °F 54% 30.01 in 6.2 mi NNW 4.6 mph - N/A   Unknown
5:25 PM 53.6 °F - 39.2 °F 58% 30.01 in 6.2 mi NNE 5.8 mph - N/A   Overcast
5:55 PM 50.0 °F - 41.0 °F 71% 30.01 in 6.2 mi NNW 2.3 mph - N/A   Unknown
6:25 PM 46.4 °F - 41.0 °F 81% 30.01 in 6.2 mi WNW 2.3 mph - N/A   Unknown
6:55 PM 46.4 °F - 41.0 °F 81% 30.01 in 6.2 mi NW 2.3 mph - N/A   Unknown
7:25 PM 46.4 °F - 42.8 °F 87% 30.01 in 6.2 mi North 2.3 mph - N/A   Partly Cloudy
7:55 PM 44.6 °F - 41.0 °F 87% 30.01 in 6.2 mi NNW 1.2 mph - N/A   Unknown
8:25 PM 42.8 °F - 41.0 °F 93% 30.01 in 6.2 mi Calm Calm - N/A   Unknown
8:55 PM 41.0 °F - 39.2 °F 93% 30.01 in 6.2 mi North 2.3 mph - N/A   Unknown
9:25 PM 39.2 °F - 39.2 °F 100% 30.01 in 6.2 mi North 2.3 mph - N/A   Partly Cloudy
9:55 PM 39.2 °F - 39.2 °F 100% 30.01 in 6.2 mi East 1.2 mph - N/A   Scattered Clouds
10:25 PM 39.2 °F - 39.2 °F 100% 30.04 in 6.2 mi Calm Calm - N/A   Unknown
10:55 PM 39.2 °F - 39.2 °F 100% 30.04 in 6.2 mi West 1.2 mph - N/A   Unknown
11:25 PM 39.2 °F - 37.4 °F 93% 30.04 in 6.2 mi Calm Calm - N/A   Unknown
11:55 PM 37.4 °F - 37.4 °F 100% 30.04 in 6.2 mi West 1.2 mph - N/A   Unknown